Location: Koussan�
(15.2012°N, 12.5548°W)
Time: 18:21:44
(UTC+00:00)

H-10 deb - Pass Details

Date: 20 October 2020
Orbit: 385 x 32703 km, 7.1° (Epoch: 30 November)

Event Time Altitude Azimuth Distance (km) Brightness Sun altitude
Rises 11:30:37 0° 257° (WSW) 15,216 9.0 59.7°
Reaches altitude 10° 11:44:56 10° 254° (WSW) 17,403 9.5 61.4°
Drops below altitude 10° 16:55:02 10° 258° (WSW) 35,075 13.1 20.6°
Maximum altitude 20:07:36 51° 190° (S) 2,015 4.6 -25.0°
Enters shadow 20:10:17 34° 136° (SE) 1,824 4.1 -25.6°
